Redding, CA

3:16 AM PDT on March 27, 2017 (GMT -0700)
Redding Municipal

Weather History for KRDD - December, 2012

Change the Weather History Date:

Wednesday, December 19, 2012

  Actual Average Record
Temperature  
Mean Temperature 34 °F -  
Max Temperature 43 °F 54 °F 69 °F (1999)
Min Temperature 25 °F 36 °F 24 °F (1989)
Degree Days  
Heating Degree Days 31    
Cooling Degree Days 0    
Moisture  
Dew Point 25 °F    
Average Humidity 65    
Maximum Humidity 85    
Minimum Humidity 45    
Precipitation  
Precipitation 0.00 in 0.21 in 1.20 in (2002)
Month to date precipitation 4.42 3.67  
Year to date precipitation 30.83 32.02  
Since 1 July precipitation 13.54  
Sea Level Pressure  
Sea Level Pressure 30.24 in    
Wind  
Wind Speed 1 mph (NE)    
Max Wind Speed 8 mph    
Max Gust Speed 9 mph    
Visibility 10 miles    
Events      
T = Trace of Precipitation, MM = Missing Value Source: NWS Daily Summary

Daily Weather History Graph

Daily Weather History Graph

Search for Another Location

Airport or City:

Trip Planner

Search our weather history database for the weather conditions in past years. The results will help you decide how hot, cold, wet, or windy it might be!

Date:

Astronomy

Dec. 19, 2012 Rise Set
Actual Time 7:28 AM PST 4:44 PM PST
Civil Twilight 6:57 AM PST 5:15 PM PST
Nautical Twilight 6:23 AM PST 5:50 PM PST
Astronomical Twilight 5:49 AM PST 6:23 PM PST
Moon 11:38 AM PST (12/19) No Moon Set
Length of Visible Light 10h 18m
Length of Day
9h 16m
Waxing Crescent, 46% of the Moon is Illuminated
Dec 19
Waxing Crescent
Dec 19
First Quarter
Dec 28
Full
Jan 4
Last Quarter
Jan 11
New

Hourly Weather History & Observations

Time (PST) Temp. Windchill Dew Point Humidity Pressure Visibility Wind Dir Wind Speed Gust Speed Precip Events Conditions
12:53 AM 28.0 °F 24.2 °F 23.0 °F 81% 30.19 in 10.0 mi NE 3.5 mph - N/A   Clear
1:53 AM 28.0 °F - 24.1 °F 85% 30.21 in 10.0 mi Calm Calm - N/A   Clear
2:53 AM 27.0 °F - 23.0 °F 85% 30.22 in 10.0 mi Calm Calm - N/A   Clear
3:53 AM 26.1 °F - 23.0 °F 88% 30.22 in 10.0 mi Calm Calm - N/A   Clear
4:53 AM 26.1 °F - 21.9 °F 84% 30.22 in 10.0 mi Calm Calm - N/A   Clear
5:53 AM 28.0 °F 21.7 °F 23.0 °F 81% 30.24 in 10.0 mi North 5.8 mph - N/A   Clear
6:53 AM 26.1 °F - 23.0 °F 88% 30.25 in 10.0 mi Calm Calm - N/A   Clear
7:53 AM 27.0 °F - 21.9 °F 81% 30.27 in 10.0 mi Calm Calm - N/A   Clear
8:53 AM 30.0 °F - 25.0 °F 82% 30.28 in 10.0 mi Calm Calm - N/A   Clear
9:53 AM 35.1 °F - 28.0 °F 76% 30.30 in 10.0 mi Calm Calm - N/A   Clear
10:53 AM 41.0 °F - 25.0 °F 53% 30.30 in 10.0 mi Calm Calm - N/A   Clear
11:53 AM 41.0 °F 38.0 °F 28.0 °F 60% 30.29 in 10.0 mi SE 4.6 mph - N/A   Mostly Cloudy
12:53 PM 42.1 °F - 25.0 °F 51% 30.26 in 10.0 mi Calm Calm - N/A   Overcast
1:53 PM 43.0 °F 41.3 °F 23.0 °F 45% 30.25 in 10.0 mi South 3.5 mph - N/A   Mostly Cloudy
2:53 PM 43.0 °F - 24.1 °F 47% 30.24 in 10.0 mi Calm Calm - N/A   Overcast
3:53 PM 43.0 °F - 25.0 °F 49% 30.24 in 10.0 mi Calm Calm - N/A   Overcast
4:53 PM 41.0 °F 38.0 °F 26.1 °F 55% 30.24 in 10.0 mi East 4.6 mph - N/A   Overcast
5:53 PM 41.0 °F - 25.0 °F 53% 30.23 in 10.0 mi Calm Calm - N/A   Overcast
6:53 PM 39.9 °F - 28.0 °F 63% 30.22 in 10.0 mi Calm Calm - N/A   Overcast
7:53 PM 39.9 °F - 26.1 °F 58% 30.22 in 10.0 mi Calm Calm - N/A   Overcast
8:53 PM 39.9 °F - 27.0 °F 60% 30.23 in 10.0 mi Calm Calm - N/A   Overcast
9:53 PM 37.9 °F 35.5 °F 28.9 °F 70% 30.24 in 10.0 mi NNE 3.5 mph - N/A   Overcast
10:53 PM 37.9 °F - 28.9 °F 70% 30.23 in 10.0 mi Calm Calm - N/A   Overcast
11:53 PM 37.9 °F 35.5 °F 28.9 °F 70% 30.22 in 10.0 mi NW 3.5 mph - N/A   Overcast